#timestamp,LO_Frequency,Hit,StdDev 
1565870415.2,286047000.3,N
1565870435.0,286047000.9,N
1565870435.9,286047000.9,N
1565870455.8,286047000.9,N
1565870475.6,286047000.6,N
1565870495.4,286047000.7,N
1565870515.3,286047000.9,N
1565870535.1,286047000.5,N
1565870555.9,286047001.2,N
1565870575.7,286047000.9,N
1565870595.5,286047000.9,N
1565870615.4,286047000.1,N
1565870635.2,286047002.4,N
1565870655.0,286046999.8,N
1565870655.9,286046999.8,N
1565870675.8,286046999.8,N
1565870695.6,286047001.0,N
1565870715.5,286047001.0,N
1565870735.3,286047000.9,N
1565870755.1,286047000.4,N
1565870775.9,286047000.0,N
1565870795.7,286046999.9,N
1565870815.6,286047000.5,N
1565870835.4,286047000.5,N
1565870855.2,286047000.6,N
1565870875.1,286047000.0,N
1565870876.0,286047000.0,N
1565870895.8,286047000.1,N
1565870915.7,286047002.3,Y
1565870935.5,286046999.8,P
1565870955.3,286047000.3,N
1565870975.2,286047001.0,P
1565870995.0,286047000.1,N
1565870995.9,286047000.1,N
1565871015.7,286047000.8,N
1565871035.6,286047000.4,N
1565871055.4,286047000.9,N
1565871075.3,286046998.3,Y
1565871095.1,286046998.7,P
1565871115.8,286046998.9,N
1565871135.7,286046996.5,P
1565871155.5,286046998.2,N
1565871175.4,286046998.7,N
1565871195.2,286047000.8,N
1565871215.0,286047000.7,N
1565871215.9,286047000.7,N
1565871235.8,286046998.1,N
1565871255.6,286047001.2,N
1565871275.5,286047000.9,N
1565871295.3,286046998.2,N
1565871315.1,286046998.6,N
1565871335.9,286046999.4,N
1565871355.7,286046999.4,N
1565871375.5,286046998.4,N
1565871395.4,286047000.8,N
1565871415.2,286046998.1,N
1565871435.1,286046998.4,N
1565871436.0,286046998.4,N
1565871455.8,286046999.0,N
1565871475.6,286046999.2,N
1565871495.5,286046996.7,N
1565871515.3,286046997.4,N
1565871535.1,286046997.6,N
1565871555.9,286046997.8,N
1565871575.7,286046997.7,N
1565871595.6,286046997.7,N
1565871615.4,286046997.3,N
1565871635.2,286046997.0,N
1565871655.1,286046997.3,N
1565871656.0,286046997.3,N
1565871675.8,286046997.5,N
1565871695.7,286046997.9,N
1565871715.5,286046997.3,N
1565871735.3,286046997.0,N
1565871755.2,286046996.8,N
1565871775.0,286046999.6,N
1565871775.9,286046999.6,N
1565871795.8,286046997.0,N
1565871815.6,286046997.0,N
1565871835.4,286046999.5,N
1565871855.3,286046998.9,N
1565871875.1,286046999.6,N
1565871895.8,286046997.9,N
1565871915.7,286046997.9,N
1565871935.5,286046997.8,N
1565871955.4,286046994.9,Y
1565871975.2,286046999.1,P
1565871995.0,286046999.5,N
1565871995.9,286046999.5,N
1565872015.8,286046999.2,N
1565872035.6,286046996.8,Y
1565872055.5,286046996.5,P
1565872075.3,286046996.9,N
1565872095.1,286046997.0,N
1565872115.9,286046999.5,N
1565872135.7,286046998.1,N
1565872155.5,286046998.5,N
1565872175.4,286047002.8,N
1565872195.2,286047000.3,N
1565872215.1,286046998.6,N
1565872216.0,286046998.6,N
1565872235.8,286047000.8,N
1565872255.6,286047000.4,N
1565872275.5,286047000.3,N
1565872295.3,286047002.2,N
1565872315.1,286047000.4,N
1565872335.9,286047001.1,N
1565872355.7,286046998.2,N
1565872375.6,286047000.6,N
1565872395.4,286047000.8,N
1565872415.2,286046999.9,N
1565872435.1,286047001.1,N
1565872436.0,286047001.1,N
1565872455.8,286047000.5,N
1565872475.7,286047000.3,N
1565872495.5,286047002.7,N
1565872515.3,286047000.9,N
1565872535.2,286046999.9,N
1565872555.0,286046998.4,N
1565872555.9,286046998.4,N
1565872575.7,286046998.2,N
1565872595.6,286046999.6,N
1565872615.4,286046998.7,N
1565872635.3,286046999.4,N
1565872655.1,286047001.1,N
1565872675.8,286046998.8,N
1565872695.7,286046998.5,N
1565872715.5,286046998.2,N
1565872735.4,286047000.3,N
1565872755.2,286047000.2,N
1565872775.0,286046999.7,N
1565872775.9,286046999.7,N
1565872795.8,286047000.1,N
1565872815.6,286047000.1,N
1565872835.4,286046999.9,N
1565872855.3,286047000.0,N
1565872875.1,286047000.0,N
1565872895.9,286047000.9,N
1565872915.7,286047000.9,N
1565872935.5,286047000.5,N
1565872955.4,286047000.4,N
1565872975.2,286047000.9,N
1565872995.1,286047000.2,N
1565872996.0,286047000.2,N
1565873015.8,286047001.9,N
1565873035.6,286047004.0,Y
1565873055.5,286047002.6,P
1565873075.3,286046999.7,N
1565873095.1,286047002.3,N
1565873115.9,286047001.6,N
1565873135.7,286047001.8,N
1565873155.6,286047002.7,N
1565873175.4,286046999.7,N
1565873195.2,286047000.1,N
1565873215.1,286047002.6,N
1565873216.0,286047002.6,N
1565873235.8,286047002.6,N
1565873255.7,286047001.5,N
1565873275.5,286047004.3,Y
1565873295.3,286047000.2,P
1565873315.2,286047000.2,N
1565873335.0,286047000.3,N
1565873335.9,286047000.3,N
1565873355.8,286046999.7,N
1565873375.6,286047001.2,N
1565873395.4,286047000.7,N
1565873415.3,286047000.8,N
1565873435.1,286047001.0,N
1565873455.9,286047000.4,N
1565873475.7,286047000.4,N
1565873495.5,286047000.0,N
1565873515.4,286047001.2,N
1565873535.2,286047000.7,N
1565873555.0,286047000.7,N
1565873556.0,286047000.7,N
1565873575.8,286046998.6,Y
1565873595.6,286047001.0,P
1565873615.5,286046999.7,N
1565873635.3,286047000.5,N
1565873655.1,286047000.2,N
1565873675.9,286047002.8,Y
1565873695.7,286047000.3,P
1565873715.6,286047000.4,P
1565873735.4,286047000.0,N
1565873755.2,286047001.0,Y
1565873775.1,286047000.4,P
1565873776.0,286047000.4,P
1565873795.8,286047000.4,P
1565873815.7,286047000.6,Y
1565873835.5,286047000.5,P
1565873855.3,286047000.5,P
1565873875.2,286047001.2,P
1565873895.0,286046998.5,Y
1565873895.9,286046998.5,P
1565873915.8,286046998.7,N
1565873935.6,286046999.5,N
1565873955.4,286046999.6,N
1565873975.3,286046999.5,N
1565873995.1,286046998.8,N
